Location: *
(49.4547°N, 7.9131°E)
Time: 07:45:36
(UTC+00:00)

SL-8 Rocket - Pass Details

Date: 22 September 2019
Orbit: 956 x 991 km, 82.9° (Epoch: 15 October)

Event Time Altitude Azimuth Distance (km) Brightness Sun altitude
Rises 18:51:17 0° 351° (N) 3,669 7.4 -14.3°
Reaches altitude 10° 18:53:49 10° 353° (N) 2,714 6.7 -14.7°
Maximum altitude 19:00:02 78° 80° (E) 985 3.9 -15.6°
Drops below altitude 10° 19:06:10 10° 167° (SSE) 2,682 6.0 -16.6°
Enters shadow 19:07:52 - 168° (SSE) 3,324 6.5 -16.8°
